DAL365 KSFO-KATL

Flight info

Callsign DAL365
Flight time N/A
Altitude 35000
Route TRUKN2 SYRAH Q128 ECIGE MEMFS HUTCC KNSAW RUSSA GLAVN2
Aircraft B739/M-SDE2E3FGHIRWXY/LB1

Departure

Time 2026-04-30 22:26
Airport San Francisco International Airport (KSFO)

Arrival

Time N/A
Airport Hartsfield Jackson Atlanta International Airport (KATL)
Time Latitude Longitude Altitude Speed Heading
2026-04-30 21:51 37.61432 -122.38280 14 ft 0 kts 28°
2026-04-30 22:13 37.61426 -122.38284 14 ft 4 kts 28°
2026-04-30 22:13 37.61406 -122.38297 14 ft 3 kts 27°
2026-04-30 22:13 37.61389 -122.38312 15 ft 4 kts 84°
2026-04-30 22:13 37.61396 -122.38337 15 ft 4 kts 117°
2026-04-30 22:14 37.61402 -122.38351 15 ft 1 kts 117°
2026-04-30 22:17 37.61378 -122.38295 14 ft 6 kts 119°
2026-04-30 22:17 37.61353 -122.38240 13 ft 7 kts 117°
2026-04-30 22:17 37.61400 -122.38129 15 ft 8 kts 60°
2026-04-30 22:18 37.61391 -122.38061 16 ft 9 kts 117°
2026-04-30 22:18 37.61315 -122.37873 14 ft 15 kts 117°
2026-04-30 22:19 37.61228 -122.37634 17 ft 15 kts 96°
2026-04-30 22:19 37.61257 -122.37516 18 ft 14 kts 54°
2026-04-30 22:19 37.61412 -122.37394 22 ft 13 kts 27°
2026-04-30 22:20 37.61490 -122.37341 21 ft 12 kts 33°
2026-04-30 22:20 37.61560 -122.37160 21 ft 12 kts 94°
2026-04-30 22:20 37.61525 -122.37049 21 ft 16 kts 117°
2026-04-30 22:21 37.61470 -122.36934 21 ft 15 kts 130°
2026-04-30 22:21 37.61403 -122.36836 18 ft 14 kts 130°
2026-04-30 22:21 37.61347 -122.36734 17 ft 14 kts 120°
2026-04-30 22:21 37.61299 -122.36621 17 ft 17 kts 118°
2026-04-30 22:22 37.61241 -122.36481 16 ft 18 kts 117°
2026-04-30 22:22 37.61182 -122.36343 16 ft 17 kts 118°
2026-04-30 22:22 37.61128 -122.36213 18 ft 17 kts 118°
2026-04-30 22:22 37.61074 -122.36085 18 ft 16 kts 118°
2026-04-30 22:23 37.61051 -122.36004 19 ft 10 kts 97°
2026-04-30 22:23 37.61063 -122.35943 19 ft 1 kts 58°
2026-04-30 22:23 37.61063 -122.35942 18 ft 0 kts 58°
2026-04-30 22:24 37.61065 -122.35939 18 ft 2 kts 57°
2026-04-30 22:24 37.61090 -122.35910 17 ft 9 kts 34°
2026-04-30 22:25 37.61146 -122.35874 19 ft 9 kts 26°
2026-04-30 22:25 37.61189 -122.35891 18 ft 8 kts 305°
2026-04-30 22:25 37.61252 -122.36038 15 ft 45 kts 297°
2026-04-30 22:25 37.61494 -122.36610 16 ft 101 kts 298°
2026-04-30 22:26 37.62402 -122.38764 232 ft 160 kts 299°
2026-04-30 22:26 37.62969 -122.39984 795 ft 162 kts 306°
2026-04-30 22:26 37.63938 -122.40812 1060 ft 183 kts 348°
2026-04-30 22:27 37.65224 -122.40619 1531 ft 190 kts 25°
2026-04-30 22:27 37.66215 -122.39535 2036 ft 198 kts 60°
2026-04-30 22:27 37.67188 -122.36162 2843 ft 209 kts 69°
2026-04-30 22:28 37.68336 -122.32517 3219 ft 240 kts 67°
2026-04-30 22:28 37.68972 -122.30529 3574 ft 251 kts 68°
2026-04-30 22:29 37.70982 -122.24007 5188 ft 269 kts 68°
2026-04-30 22:29 37.71662 -122.21782 5807 ft 272 kts 67°
2026-04-30 22:30 37.75786 -122.13600 8189 ft 280 kts 56°
2026-04-30 22:31 37.79047 -122.07383 10015 ft 286 kts 56°
2026-04-30 22:32 37.82536 -122.00536 10567 ft 335 kts 63°
2026-04-30 22:32 37.83800 -121.94713 11353 ft 349 kts 76°
2026-04-30 22:33 37.85409 -121.85618 12888 ft 361 kts 75°
2026-04-30 22:33 37.86544 -121.79382 13994 ft 367 kts 75°
2026-04-30 22:34 37.88303 -121.69819 15542 ft 376 kts 74°
2026-04-30 22:35 37.89498 -121.63322 16582 ft 382 kts 74°
2026-04-30 22:36 37.91937 -121.49998 18525 ft 395 kts 74°
2026-04-30 22:36 37.92557 -121.46591 18950 ft 398 kts 74°
2026-04-30 22:37 37.94443 -121.36207 20245 ft 408 kts 74°
2026-04-30 22:37 37.95079 -121.32688 20657 ft 411 kts 74°
2026-04-30 22:37 37.96365 -121.25562 21462 ft 418 kts 74°
2026-04-30 22:38 37.97667 -121.18317 22256 ft 425 kts 74°
2026-04-30 22:38 37.98986 -121.10953 23049 ft 431 kts 74°
2026-04-30 22:39 37.99617 -121.07272 23432 ft 435 kts 75°
2026-04-30 22:39 38.01379 -120.95860 24460 ft 443 kts 76°
2026-04-30 22:40 38.03139 -120.84271 25506 ft 450 kts 76°
2026-04-30 22:41 38.04943 -120.72476 26441 ft 458 kts 76°
2026-04-30 22:41 38.06158 -120.64508 27070 ft 462 kts 76°
2026-04-30 22:42 38.08609 -120.48305 28274 ft 472 kts 76°
2026-04-30 22:43 38.09845 -120.40072 28834 ft 477 kts 76°
2026-04-30 22:43 38.11084 -120.31779 29483 ft 479 kts 76°
2026-04-30 22:44 38.12327 -120.23413 30011 ft 484 kts 77°
2026-04-30 22:45 38.14790 -120.06707 31211 ft 484 kts 76°
2026-04-30 22:45 38.16022 -119.98291 31761 ft 484 kts 76°
2026-04-30 22:46 38.17245 -119.89890 32316 ft 484 kts 76°
2026-04-30 22:47 38.19678 -119.73044 33338 ft 485 kts 76°
2026-04-30 22:47 38.20888 -119.64607 33835 ft 485 kts 76°
2026-04-30 22:48 38.22089 -119.56179 34253 ft 485 kts 76°
2026-04-30 22:49 38.23882 -119.43513 34796 ft 485 kts 76°
2026-04-30 22:49 38.25657 -119.30883 35011 ft 487 kts 76°
2026-04-30 22:51 38.29177 -119.05498 35010 ft 485 kts 76°
2026-04-30 22:52 38.30914 -118.92829 35010 ft 484 kts 76°
2026-04-30 22:53 38.33207 -118.75925 35038 ft 485 kts 76°
2026-04-30 22:53 38.34917 -118.63205 35048 ft 486 kts 77°
2026-04-30 22:55 38.37738 -118.41964 35021 ft 487 kts 77°
2026-04-30 22:56 38.39967 -118.24958 34979 ft 486 kts 77°
2026-04-30 22:57 38.42715 -118.03721 35007 ft 486 kts 77°
2026-04-30 22:58 38.44886 -117.86728 34966 ft 487 kts 77°
2026-04-30 22:59 38.48098 -117.61187 34983 ft 485 kts 77°